Station MGPT2 - 8770613 - Morgans Point, TX Image indicating link to RSS feed of recent meteorological observations for station MGPT2


Conditions at MGPT2 as of
(7:48 pm CDT on 07/13/2024)
0048 GMT on 07/14/2024:
     

Click on the graph icon in the table below to see a time series plot of the last five days of that observation.

5-day plot - Wind Direction Wind Direction (WDIR):NNW ( 340 deg true )
5-day plot - Wind Speed Wind Speed (WSPD): 5.1 kts
5-day plot - Wind Gust Wind Gust (GST): 8.9 kts
5-day plot - Water Temperature Water Temperature (WTMP): 83.8 °F
5-day plot - Wind Speed at 10 Meters Wind Speed at 10 meters (WSPD10M): 5.8 kts
5-day plot - Wind Speed at 20 Meters Wind Speed at 20 meters (WSPD20M): 5.8 kts
5-day plot -  Wind Speed, Wind Gust and Atmospheric Pressure Combined plot of Wind Speed, Gust, and Air Pressure
Previous observations
TIME
(CDT)
5-day plot - Wind Direction
WDIR
 
5-day plot - Wind Speed
WSPD
kts
5-day plot - Wind Gust
GST
kts
5-day plot - Wave Height
WVHT
ft
5-day plot - Dominant Wave Period
DPD
sec
5-day plot - Average Wave Period
APD
sec
5-day plot - Mean Wave Direction
MWD
 
5-day plot - Atmospheric Pressure
PRES
in
5-day plot - Pressure Tendency
PTDY
in
5-day plot - Air Temperature
ATMP
°F
5-day plot - Water Temperature
WTMP
°F
5-day plot - Dew Point
DEWP
°F
5-day plot - Salinity
SAL
psu
5-day plot - Visibility
VIS
nmi
5-day plot - Tide (above MLLW)
TIDE
ft
2024-07-13 07:42 pm N 5.1 8.0------- 84.0----
2024-07-13 07:36 pm N 7.0 8.9------- 84.0----
2024-07-13 07:30 pm NW 7.0 9.9----30.16- 75.7 84.0----
2024-07-13 07:24 pm NW 8.9 13.0----30.16- 75.4 84.0----
2024-07-13 07:18 pmWNW 13.0 19.0----30.17- 74.8 84.0----
2024-07-13 07:12 pm NW 15.9 24.1----30.18- 75.9 84.0----
2024-07-13 07:06 pmNNW 21.0 28.0----30.18- 75.7 84.0----
2024-07-13 07:00 pm NW 14.0 28.0----30.17+0.06 77.0 84.2----
2024-07-13 06:54 pm NW 11.1 19.0----30.17- 78.3 84.2----
2024-07-13 06:48 pmSSW 1.9 4.1----30.16- 78.8 84.2----
2024-07-13 06:42 pm S 4.1 8.0----30.15- 78.4 84.2----
2024-07-13 06:36 pm S 6.0 8.0----30.14- 77.9 84.0----
2024-07-13 06:30 pm S 8.0 14.0----30.14- 76.6 84.0----
2024-07-13 06:24 pm S 8.0 15.0----30.14- 77.0 84.0----
2024-07-13 06:18 pm S 14.0 18.1----30.13- 77.4 84.0----
2024-07-13 06:12 pm S 14.0 17.1----30.13- 78.1 84.0----
2024-07-13 06:06 pm S 11.1 17.1----30.14- 81.0 84.0----
2024-07-13 06:00 pm S 7.0 11.1----30.14+0.00 82.6 84.0----
2024-07-13 05:54 pmSSE 8.0 13.0----30.13- 82.9 84.0----
2024-07-13 05:48 pm S 9.9 13.0----30.13-- 84.0----
2024-07-13 05:42 pmESE 5.1 7.0----30.12- 85.1 84.0----
2024-07-13 05:36 pmESE 6.0 8.9----30.12- 84.9 84.0----
2024-07-13 05:30 pmESE 8.0 9.9----30.11-- 84.0----
2024-07-13 05:24 pmESE 8.9 11.1----30.12-- 84.0----
2024-07-13 05:18 pmESE 7.0 9.9----30.12- 85.8 84.0----
2024-07-13 05:12 pm E 5.1 11.1----30.11- 86.4 84.0----
2024-07-13 05:06 pmESE 7.0 8.9----30.11- 86.7 84.0----
2024-07-13 05:00 pmESE 8.9 9.9----30.11-0.04 87.1 84.0----
2024-07-13 04:54 pmESE 6.0 7.0----30.12- 88.9 84.0----
2024-07-13 04:48 pm E 5.1 8.0----30.12- 88.9 84.0----
2024-07-13 04:42 pmESE 7.0 8.9----30.12- 87.6 84.0----
2024-07-13 04:36 pm E 5.1 7.0----30.11- 87.3 84.0----
2024-07-13 04:30 pm E 4.1 7.0----30.11-- 83.8----
2024-07-13 04:24 pmESE 5.1 7.0----30.12-- 83.8----
2024-07-13 04:18 pm E 4.1 8.0----30.12- 86.7 83.8----
2024-07-13 04:12 pmESE 7.0 9.9----30.11- 86.2 83.8----
2024-07-13 04:06 pmESE 7.0 9.9----30.11- 86.2 83.8----
2024-07-13 04:00 pm E 6.0 9.9----30.11-0.05 86.5 83.8----
2024-07-13 03:54 pmESE 6.0 8.9----30.12- 86.5 84.0----
2024-07-13 03:48 pmESE 8.0 9.9----30.12- 86.7 84.0----
2024-07-13 03:42 pmESE 7.0 8.9----30.12- 86.9 83.8----
2024-07-13 03:36 pmESE 7.0 9.9----30.12- 86.9 83.8----
2024-07-13 03:30 pmESE 8.0 8.9----30.12-- 83.8----
2024-07-13 03:24 pmESE 6.0 8.0----30.13-- 83.8----
2024-07-13 03:18 pmESE 5.1 8.0----30.13- 87.1 83.7----
2024-07-13 03:12 pmESE 4.1 7.0----30.13- 87.4 83.7----
2024-07-13 03:06 pm E 4.1 6.0----30.13- 88.2 83.7----
2024-07-13 03:00 pmESE 5.1 6.0----30.13-0.04- 83.7----
2024-07-13 02:54 pmESE 7.0 8.0----30.14-- 83.7----
2024-07-13 02:48 pmESE 5.1 7.0----30.14-- 83.7----
2024-07-13 02:42 pm E 4.1 7.0----30.14-- 83.7----
2024-07-13 02:36 pm E 5.1 7.0----30.14-- 83.7----
2024-07-13 02:30 pm E 2.9 6.0----30.15- 87.1 83.7----
2024-07-13 02:24 pmESE 5.1 7.0----30.15- 87.3 83.7----
2024-07-13 02:18 pmESE 5.1 7.0----30.15- 88.2 83.7----
2024-07-13 02:12 pmESE 4.1 7.0----30.15- 89.8 83.8----
2024-07-13 02:06 pmESE 6.0 8.0----30.15- 89.4 83.8----
2024-07-13 02:00 pmESE 5.1 8.0----30.16-0.01- 83.8----
2024-07-13 01:54 pmESE 4.1 8.0----30.16-- 83.8----
2024-07-13 01:48 pmESE 5.1 6.0----30.16- 87.6 83.8----
2024-07-13 01:42 pmESE 4.1 7.0----30.16- 88.2 83.8----
2024-07-13 01:36 pmESE 5.1 7.0----30.16- 87.8 83.8----
2024-07-13 01:30 pm E 2.9 4.1----30.16- 87.8 83.8----
2024-07-13 01:24 pmESE 2.9 5.1----30.16- 87.3 83.8----
2024-07-13 01:18 pmESE 4.1 6.0----30.16- 86.5 83.8----
2024-07-13 01:12 pm E 2.9 6.0----30.16- 87.1 83.8----
2024-07-13 01:06 pmESE 5.1 6.0----30.17- 86.4 83.8----
2024-07-13 01:00 pmESE 5.1 6.0----30.17+0.01 86.0 83.8----
2024-07-13 12:54 pmESE 5.1 6.0----30.17- 86.5 83.8----
2024-07-13 12:48 pm SE 1.9 5.1----30.17-------
2024-07-13 12:42 pmESE 2.9 5.1----30.17-------
2024-07-13 12:36 pm SE 2.9 5.1----30.17-------
2024-07-13 12:30 pmESE 1.9 4.1----30.18- 86.7 83.7----
2024-07-13 12:24 pm E 1.9 5.1----30.17- 86.0 83.5----
2024-07-13 12:18 pmESE 2.9 5.1----30.18- 86.7 83.5----
2024-07-13 12:12 pmESE 1.9 2.9----30.18- 86.4 83.3----
2024-07-13 12:06 pm E 1.9 4.1----30.17- 84.6 83.1----
2024-07-13 12:00 pm-------30.17+0.02- 83.1----
2024-07-13 11:54 am-------30.18-- 83.1----
2024-07-13 11:48 am E 2.9 2.9----30.18- 84.2 83.1----
2024-07-13 11:42 am E 1.0 4.1----30.17- 83.8 82.9----
2024-07-13 11:36 am E 1.0 4.1----30.17- 83.7 82.9----
2024-07-13 11:30 amENE 2.9 4.1------ 81.5 82.9----
2024-07-13 11:24 am NE 2.9 2.9------ 81.1 82.9----
2024-07-13 11:18 amNNE 1.9 2.9----30.17-------
2024-07-13 11:12 am N 1.9 2.9----30.17-------
2024-07-13 11:06 am NE 1.0 2.9----30.17-------
2024-07-13 11:00 amNNE 1.9 1.9----30.17+0.01 79.7 82.8----
2024-07-13 10:54 amNNW 1.9 2.9----30.17- 79.5 82.8----
2024-07-13 10:48 am- 0.0 1.0----30.17- 80.2 82.8----
2024-07-13 10:42 am E 1.0 1.9----30.17- 80.6 82.8----
2024-07-13 10:36 am E 1.0 1.9----30.17- 80.2 82.6----
2024-07-13 10:30 am- 0.0 1.0----30.17- 80.2 82.6----
2024-07-13 10:24 am- 0.0 1.9----30.17- 79.7 82.6----
2024-07-13 10:18 am- 0.0 1.9----30.16- 78.8 82.6----
2024-07-13 10:12 amNNW 1.9 2.9----30.16- 78.4 82.6----
2024-07-13 10:06 am NW 2.9 4.1----30.16- 78.3 82.6----
2024-07-13 10:00 am NW 4.1 5.1----30.16+0.02 78.3 82.6----
2024-07-13 09:54 am NW 2.9 2.9----30.16- 78.4 82.6----
2024-07-13 09:48 amWNW 1.9 2.9----30.16- 78.6 82.6----
2024-07-13 09:42 am- 0.0 1.9----30.16- 78.8 82.6----
2024-07-13 09:36 am NW 1.9 1.9----30.16- 78.3 82.6----
2024-07-13 09:30 am N 1.0 1.9----30.15- 77.7 82.6----
2024-07-13 09:24 amNNW 1.9 5.1----30.15- 77.5 82.6----
2024-07-13 09:18 am W 5.1 6.0----30.15- 77.5 82.6----
2024-07-13 09:12 am S 2.9 4.1----30.15- 78.1 82.6----
2024-07-13 09:06 amESE 1.9 2.9----30.15- 77.9 82.6----
2024-07-13 09:00 am E 1.0 1.9----30.15+0.03 77.4 82.6----
2024-07-13 08:54 am SE 1.0 1.9----30.15- 77.0 82.8----
2024-07-13 08:48 am- 0.0 2.9----30.15- 76.8 82.8----
2024-07-13 08:42 am S 2.9 4.1----30.15- 76.6 82.8----
2024-07-13 08:36 am S 2.9 4.1----30.15- 76.5 82.8----
2024-07-13 08:30 amSSW 1.9 2.9----30.15- 76.1 82.8----
2024-07-13 08:24 amSSW 1.9 2.9----30.15- 75.9 82.8----
2024-07-13 08:18 amSSW 1.9 5.1----30.15- 75.7 82.8----
2024-07-13 08:12 am S 2.9 5.1----30.16- 75.6 82.6----
2024-07-13 08:06 amSSW 2.9 5.1----30.16- 75.7 82.6----
2024-07-13 08:00 am SW 5.1 5.1----30.16+0.05 75.9 82.6----
2024-07-13 07:54 amSSW 4.1 7.0----30.16- 76.1 82.6----
2024-07-13 07:48 am S 5.1 7.0----30.16- 76.3 82.6----
2024-07-13 07:42 am S 5.1 8.0----30.15- 76.6 82.6----
2024-07-13 07:36 am S 2.9 7.0----30.16- 77.2 82.6----
2024-07-13 07:30 am SE 5.1 7.0----30.15- 77.2 82.6----
2024-07-13 07:24 am SE 6.0 8.9----30.16- 77.2 82.6----
2024-07-13 07:18 am SE 6.0 11.1----30.16- 76.6 82.6----
2024-07-13 07:12 amESE 8.0 11.1----30.15- 76.8 82.6----
2024-07-13 07:06 am SE 4.1 5.1----30.15- 76.6 82.6----
2024-07-13 07:00 am SE 2.9 4.1----30.14+0.05 76.6 82.6----
2024-07-13 06:54 am SE 2.9 2.9----30.14- 76.5 82.8----
2024-07-13 06:48 am SE 1.9 2.9----30.13-- 82.8----
2024-07-13 06:42 amSSE 1.9 2.9----30.14-- 82.8----
2024-07-13 06:36 am S 1.9 4.1----30.14-- 82.8----
2024-07-13 06:30 am SE 2.9 4.1----30.14-- 82.8----
2024-07-13 06:24 amESE 2.9 4.1----30.14-- 82.8----
2024-07-13 06:18 amESE 2.9 4.1----30.13- 76.3 82.8----
2024-07-13 06:12 amESE 1.9 2.9----30.13- 75.9 82.8----
2024-07-13 06:06 am- 0.0 2.9----30.12- 75.9 82.8----
2024-07-13 06:00 amENE 2.9 2.9----30.12- 76.1 82.8----
2024-07-13 05:54 amENE 1.9 5.1----30.12- 75.6 82.8----
2024-07-13 05:48 amENE 4.1 5.1----30.12- 75.9 82.8----
2024-07-13 05:42 amNNE 4.1 6.0----30.12- 75.4 82.8----
2024-07-13 05:36 am NE 5.1 6.0----30.12- 75.4 82.8----
2024-07-13 05:30 amSSE 1.9 6.0----30.11- 75.4 82.8----
2024-07-13 05:24 amESE 2.9 12.0----30.12- 75.9 82.8----
2024-07-13 05:18 am E 11.1 18.1----30.12- 74.7 82.8----
2024-07-13 05:12 am S 11.1 14.0----30.13- 76.8 82.8----
2024-07-13 05:06 am S 9.9 14.0----30.12- 78.4 82.8----
2024-07-13 05:00 amENE 1.9 1.9----30.11+0.01- 82.8----
2024-07-13 04:54 am- 0.0 1.9----30.10-- 82.8----
2024-07-13 04:48 am NE 1.9 4.1----30.09-- 82.8----
2024-07-13 04:42 am NE 2.9 4.1----30.09-- 82.8----
2024-07-13 04:36 am NE 2.9 2.9----30.09-- 82.8----
2024-07-13 04:30 am-------30.09-- 82.8----
2024-07-13 04:24 amNNE 2.9 2.9----30.09- 79.0 82.8----
2024-07-13 04:18 am NE 1.9 1.9----30.09-- 82.8----
2024-07-13 04:12 am NE 1.0 1.9----30.09- 79.0 82.8----
2024-07-13 04:06 am NE 1.9 2.9----30.09- 79.0 82.8----
2024-07-13 04:00 amNNE 1.9 2.9----30.09-0.01 79.2 82.8----
2024-07-13 03:54 am NE 1.9 4.1----30.09- 79.2 82.8----
2024-07-13 03:48 am NE 2.9 4.1----30.09- 79.0 82.8----
2024-07-13 03:42 amENE 2.9 5.1----30.09- 79.0 82.8----
2024-07-13 03:36 am NE 4.1 5.1----30.09- 78.8 82.8----
2024-07-13 03:30 am NE 4.1 5.1----30.09- 78.8 82.8----
2024-07-13 03:24 am NE 5.1 6.0----30.09- 78.8 82.8----
2024-07-13 03:18 am NE 4.1 6.0----30.08-- 82.8----
2024-07-13 03:12 am NE 5.1 6.0----30.08- 78.8 82.8----
2024-07-13 03:06 amNNE 4.1 6.0----30.08- 78.8 82.8----
2024-07-13 03:00 amNNE 5.1 6.0------ 78.6 82.9----
2024-07-13 02:54 amNNE 5.1 6.0------ 78.8 82.9----
2024-07-13 02:48 amNNE 4.1 6.0----30.08- 78.8 82.9----
2024-07-13 02:42 amNNE 4.1 5.1----30.09- 78.6 82.9----
2024-07-13 02:36 amNNE 4.1 4.1----30.09- 78.8 82.9----
2024-07-13 02:30 am NE 2.9 4.1----30.09- 78.8 82.9----
2024-07-13 02:24 am NE 1.9 2.9----30.09- 79.0 82.9----
2024-07-13 02:18 amNNE 1.9 2.9----30.09-- 82.9----
2024-07-13 02:12 am NE 1.0 1.9----30.09- 79.3 82.9----
2024-07-13 02:06 amENE 1.9 1.9----30.09- 79.2 82.9----
2024-07-13 02:00 am NE 1.0 1.9----30.09+0.00 79.0 82.9----
2024-07-13 01:54 am- 0.0 1.9----30.10- 78.8 82.9----
2024-07-13 01:48 amNNW 1.0 1.9----30.10-- 82.9----
2024-07-13 01:42 am- 0.0 1.0----30.10- 78.8 82.9----
2024-07-13 01:36 am- 0.0 1.0----30.10- 78.8 82.9----
2024-07-13 01:30 am N 1.0 1.9----30.10- 79.0 82.9----
2024-07-13 01:24 am NW 1.9 1.9----30.10- 79.2 82.9----
2024-07-13 01:18 am NW 1.0 1.9----30.10-- 82.9----
2024-07-13 01:12 am NW 1.9 1.9----30.10- 79.3 82.9----
2024-07-13 01:06 am NW 1.0 1.9----30.10- 79.2 82.9----
2024-07-13 01:00 am- 0.0 1.9----30.10+0.04 79.0 82.9----
2024-07-13 12:54 am- 0.0 1.9----30.10- 79.0 82.9----
2024-07-13 12:48 am- 0.0 1.9----30.10- 79.0 82.9----
2024-07-13 12:42 am N 1.9 1.9----30.10- 79.0 82.9----
2024-07-13 12:36 am N 1.9 1.9----30.10- 79.0 82.9----
2024-07-13 12:30 am N 1.9 1.9----30.10- 79.3 82.9----
2024-07-13 12:24 am N 1.9 1.9----30.10- 79.2 82.9----
2024-07-13 12:18 amNNE 1.9 1.9----30.10- 79.3 82.9----
2024-07-13 12:12 amNNE 1.0 1.9----30.10- 79.3 82.9----
2024-07-13 12:06 amNNE 1.0 1.9----30.10- 79.2 82.9----
2024-07-13 12:00 am N 1.0 1.0----30.10+0.04 79.3 82.9----
2024-07-12 11:54 pm N 1.0 1.9----30.10- 79.5 83.1----
2024-07-12 11:48 pm NE 1.0 1.0----30.10- 79.3 83.1----
2024-07-12 11:42 pm- 0.0 1.9----30.10- 79.2 83.1----
2024-07-12 11:36 pm NE 1.0 1.9----30.10- 79.3 83.1----
2024-07-12 11:30 pmENE 1.9 2.9----30.10- 79.3 83.1----
2024-07-12 11:24 pmENE 1.9 2.9----30.09- 79.3 83.1----
2024-07-12 11:18 pm NE 2.9 4.1----30.09- 79.2 83.1----
2024-07-12 11:12 pmENE 1.0 1.9----30.09- 79.3 83.1----
2024-07-12 11:06 pmENE 1.9 2.9----30.09- 79.2 83.1----
2024-07-12 11:00 pmENE 1.9 2.9----30.09+0.04 79.3 83.1----
2024-07-12 10:54 pmENE 1.9 2.9----30.09- 79.2 83.1----
2024-07-12 10:48 pm NE 1.9 1.9----30.09- 79.0 83.1----
2024-07-12 10:42 pm NE 1.0 1.9----30.09- 78.8 83.1----
2024-07-12 10:36 pmNNE 1.0 1.0----30.08- 78.8 83.1----
2024-07-12 10:30 pmNNW 1.0 1.9----30.08- 78.8 83.1----
2024-07-12 10:24 pm N 1.0 1.9----30.07- 78.6 83.1----
2024-07-12 10:18 pm N 1.9 1.9----30.07- 78.8 83.1----
2024-07-12 10:12 pm N 1.0 1.9----30.07- 78.6 83.3----
2024-07-12 10:06 pm N 1.9 2.9----30.07- 78.8 83.3----
2024-07-12 10:00 pm N 1.9 2.9----30.07+0.01 78.8 83.3----
2024-07-12 09:54 pm N 1.9 2.9----30.06- 78.8 83.3----
2024-07-12 09:48 pm N 1.9 2.9----30.06- 79.0 83.3----
2024-07-12 09:42 pm NW 1.9 2.9----30.06- 79.0 83.3----
2024-07-12 09:36 pmNNW 1.9 2.9----30.06- 79.0 83.3----
2024-07-12 09:30 pm N 2.9 2.9----30.06- 79.0 83.3----
2024-07-12 09:24 pmNNW 1.9 2.9----30.06- 79.0 83.5----
2024-07-12 09:18 pm-------30.06-- 83.5----
2024-07-12 09:12 pmNNW 2.9 4.1----30.06- 79.2 83.5----
2024-07-12 09:06 pm N 4.1 4.1----30.06- 79.0 83.5----
2024-07-12 09:00 pm N 2.9 2.9----30.06+0.00 79.2 83.5----
2024-07-12 08:54 pmNNW 1.9 2.9----30.06- 79.3 83.5----
2024-07-12 08:48 pm-------30.06-- 83.5----
2024-07-12 08:42 pm N 2.9 4.1----30.05- 79.5 83.5----
2024-07-12 08:36 pm N 4.1 5.1----30.05- 79.7 83.5----
2024-07-12 08:30 pm N 4.1 5.1----30.05- 79.9 83.5----
2024-07-12 08:24 pm N 5.1 5.1----30.05- 80.1 83.5----
2024-07-12 08:18 pm N 4.1 5.1----30.05-- 83.5----
2024-07-12 08:12 pmNNW 4.1 4.1----30.05- 80.8 83.5----
2024-07-12 08:06 pm NW 2.9 2.9----30.05- 80.8 83.5----
2024-07-12 08:00 pmWNW 1.9 2.9----30.06+0.00 80.8 83.5----
2024-07-12 07:54 pm NW 1.9 2.9----30.06- 81.0 83.7----